York, NE

2:26 AM CST on February 20, 2018 (GMT -0600)
York Municipal

Weather History for KJYR - October, 2013

Change the Weather History Date:

Wednesday, October 9, 2013

  Actual Average Record
Temperature  
Mean Temperature 68 °F -  
Max Temperature 80 °F 65 °F 89 °F (1980)
Min Temperature 55 °F 40 °F 25 °F (1964)
Cooling Degree Days 2    
Growing Degree Days 18 (Base 50)    
Moisture  
Dew Point 49 °F    
Average Humidity 58    
Maximum Humidity 77    
Minimum Humidity 32    
Precipitation  
Precipitation 0.00 in - - ()
Sea Level Pressure  
Sea Level Pressure 29.92 in    
Wind  
Wind Speed 15 mph (SSE)    
Max Wind Speed 22 mph    
Max Gust Speed 30 mph    
Visibility 10 miles    
Events      
Averages and records for this station are not official NWS values.
T = Trace of Precipitation, MM = Missing Value Source: NWS Daily Summary

Daily Weather History Graph

Daily Weather History Graph

Search for Another Location

Airport or City:

Trip Planner

Search our weather history database for the weather conditions in past years. The results will help you decide how hot, cold, wet, or windy it might be!

Date:

Astronomy

Oct. 09, 2013 Rise Set
Actual Time 7:35 AM CDT 6:58 PM CDT
Civil Twilight 7:08 AM CDT 7:26 PM CDT
Nautical Twilight 6:36 AM CDT 7:58 PM CDT
Astronomical Twilight 6:04 AM CDT 8:29 PM CDT
Moon 12:34 PM CDT (10/9) 10:33 PM CDT (10/9)
Length of Visible Light 12h 18m
Length of Day
11h 23m
Waxing Crescent, 25% of the Moon is Illuminated
Oct 9
Waxing Crescent
Oct 11
First Quarter
Oct 18
Full
Oct 26
Last Quarter
Nov 3
New

Hourly Weather History & Observations

Time (CDT) Temp. Dew Point Humidity Pressure Visibility Wind Dir Wind Speed Gust Speed Precip Events Conditions
12:15 AM 59.0 °F 48.2 °F 67% 29.91 in 10.0 mi South 15.0 mph 21.9 mph N/A   Clear
12:35 AM 59.0 °F 48.2 °F 67% 29.91 in 10.0 mi SSE 13.8 mph 19.6 mph N/A   Clear
12:55 AM 59.0 °F 48.2 °F 67% 29.91 in 10.0 mi South 15.0 mph - N/A   Clear
1:15 AM 59.0 °F 48.2 °F 67% 29.92 in 10.0 mi South 12.7 mph - N/A   Clear
1:35 AM 57.2 °F 48.2 °F 72% 29.92 in 10.0 mi South 12.7 mph - N/A   Clear
1:55 AM 57.2 °F 48.2 °F 72% 29.92 in 10.0 mi SSE 12.7 mph - N/A   Clear
2:15 AM 57.2 °F 48.2 °F 72% 29.93 in 10.0 mi South 12.7 mph - N/A   Clear
2:35 AM 57.2 °F 48.2 °F 72% 29.93 in 10.0 mi South 12.7 mph - N/A   Clear
2:55 AM 57.2 °F 48.2 °F 72% 29.92 in 10.0 mi SSE 13.8 mph - N/A   Clear
3:15 AM 57.2 °F 48.2 °F 72% 29.92 in 10.0 mi South 16.1 mph - N/A   Clear
3:35 AM 57.2 °F 48.2 °F 72% 29.92 in 10.0 mi South 15.0 mph - N/A   Clear
3:55 AM 57.2 °F 48.2 °F 72% 29.91 in 10.0 mi South 15.0 mph 19.6 mph N/A   Clear
4:15 AM 57.2 °F 48.2 °F 72% 29.91 in 10.0 mi South 13.8 mph - N/A   Partly Cloudy
4:35 AM 57.2 °F 48.2 °F 72% 29.91 in 10.0 mi South 16.1 mph 21.9 mph N/A   Partly Cloudy
4:55 AM 57.2 °F 48.2 °F 72% 29.91 in 10.0 mi South 18.4 mph 23.0 mph N/A   Clear
5:15 AM 57.2 °F 48.2 °F 72% 29.91 in 10.0 mi South 17.3 mph - N/A   Clear
5:35 AM 57.2 °F 48.2 °F 72% 29.91 in 10.0 mi South 16.1 mph - N/A   Clear
5:55 AM 57.2 °F 48.2 °F 72% 29.91 in 10.0 mi SSE 16.1 mph 24.2 mph N/A   Clear
6:15 AM 55.4 °F 48.2 °F 77% 29.92 in 10.0 mi South 15.0 mph 20.7 mph N/A   Clear
6:35 AM 55.4 °F 48.2 °F 77% 29.91 in 10.0 mi SSE 13.8 mph 19.6 mph N/A   Clear
6:55 AM 55.4 °F 48.2 °F 77% 29.91 in 10.0 mi SSE 15.0 mph - N/A   Clear
7:15 AM 55.4 °F 48.2 °F 77% 29.92 in 10.0 mi SSE 15.0 mph - N/A   Clear
7:35 AM 55.4 °F 48.2 °F 77% 29.91 in 10.0 mi SSE 13.8 mph - N/A   Clear
7:55 AM 55.4 °F 48.2 °F 77% 29.92 in 10.0 mi SSE 13.8 mph - N/A   Clear
8:15 AM 55.4 °F 48.2 °F 77% 29.92 in 10.0 mi SSE 15.0 mph 18.4 mph N/A   Clear
8:35 AM 57.2 °F 48.2 °F 72% 29.92 in 10.0 mi SSE 18.4 mph - N/A   Clear
8:55 AM 57.2 °F 48.2 °F 72% 29.93 in 10.0 mi South 15.0 mph 20.7 mph N/A   Clear
9:15 AM 59.0 °F 48.2 °F 67% 29.93 in 10.0 mi South 15.0 mph 23.0 mph N/A   Clear
9:35 AM 60.8 °F 48.2 °F 63% 29.93 in 10.0 mi South 18.4 mph 26.5 mph N/A   Clear
9:55 AM 62.6 °F 48.2 °F 59% 29.93 in 10.0 mi South 19.6 mph 24.2 mph N/A   Clear
10:15 AM 64.4 °F 48.2 °F 56% 29.94 in 10.0 mi South 18.4 mph 26.5 mph N/A   Clear
10:35 AM 66.2 °F 48.2 °F 52% 29.95 in 10.0 mi South 18.4 mph 21.9 mph N/A   Clear
10:55 AM 66.2 °F 48.2 °F 52% 29.95 in 10.0 mi South 17.3 mph 25.3 mph N/A   Clear
11:15 AM 68.0 °F 48.2 °F 49% 29.95 in 10.0 mi South 17.3 mph 23.0 mph N/A   Clear
11:35 AM 68.0 °F 48.2 °F 49% 29.95 in 10.0 mi South 16.1 mph - N/A   Clear
11:55 AM 69.8 °F 48.2 °F 46% 29.95 in 10.0 mi South 17.3 mph 21.9 mph N/A   Clear
12:15 PM 71.6 °F 48.2 °F 43% 29.95 in 10.0 mi South 13.8 mph 24.2 mph N/A   Clear
12:35 PM 71.6 °F 48.2 °F 43% 29.94 in 10.0 mi SSE 16.1 mph 23.0 mph N/A   Clear
12:55 PM 73.4 °F 48.2 °F 41% 29.93 in 10.0 mi SSE 18.4 mph 23.0 mph N/A   Clear
1:15 PM 73.4 °F 48.2 °F 41% 29.93 in 10.0 mi South 16.1 mph 24.2 mph N/A   Clear
1:35 PM 75.2 °F 48.2 °F 38% 29.92 in 10.0 mi SSE 17.3 mph 25.3 mph N/A   Clear
1:55 PM 75.2 °F 50.0 °F 41% 29.91 in 10.0 mi SSE 16.1 mph 21.9 mph N/A   Clear
2:15 PM 77.0 °F 50.0 °F 39% 29.90 in 10.0 mi SSE 17.3 mph 23.0 mph N/A   Clear
2:35 PM 77.0 °F 50.0 °F 39% 29.90 in 10.0 mi SSE 15.0 mph 23.0 mph N/A   Clear
2:55 PM 77.0 °F 48.2 °F 36% 29.89 in 10.0 mi SSE 20.7 mph 26.5 mph N/A   Clear
3:15 PM 77.0 °F 48.2 °F 36% 29.89 in 10.0 mi SSE 19.6 mph 25.3 mph N/A   Clear
3:55 PM 80.6 °F 48.2 °F 32% 29.89 in 10.0 mi SSE 18.4 mph 23.0 mph N/A   Clear
4:15 PM 78.8 °F 48.2 °F 34% 29.88 in 10.0 mi SSE 18.4 mph 28.8 mph N/A   Clear
4:35 PM 78.8 °F 48.2 °F 34% 29.88 in 10.0 mi SSE 17.3 mph 23.0 mph N/A   Clear
4:55 PM 78.8 °F 46.4 °F 32% 29.88 in 10.0 mi SSE 19.6 mph 28.8 mph N/A   Clear
5:15 PM 77.0 °F 48.2 °F 36% 29.88 in 10.0 mi SSE 21.9 mph 29.9 mph N/A   Clear
5:35 PM 77.0 °F 48.2 °F 36% 29.88 in 10.0 mi SSE 18.4 mph 24.2 mph N/A   Clear
5:55 PM 75.2 °F 48.2 °F 38% 29.88 in 10.0 mi SSE 18.4 mph 23.0 mph N/A   Clear
6:15 PM 75.2 °F 48.2 °F 38% 29.89 in 10.0 mi SSE 16.1 mph 20.7 mph N/A   Clear
6:55 PM 71.6 °F 48.2 °F 43% 29.90 in 10.0 mi SSE 13.8 mph - N/A   Clear
7:15 PM 71.6 °F 48.2 °F 43% 29.90 in 10.0 mi SSE 13.8 mph - N/A   Clear
7:35 PM 69.8 °F 48.2 °F 46% 29.91 in 10.0 mi SSE 13.8 mph - N/A   Clear
7:55 PM 68.0 °F 50.0 °F 52% 29.91 in 10.0 mi SSE 11.5 mph - N/A   Clear
8:15 PM 68.0 °F 50.0 °F 52% 29.92 in 10.0 mi SSE 15.0 mph 19.6 mph N/A   Clear
8:35 PM 66.2 °F 51.8 °F 60% 29.92 in 10.0 mi SSE 11.5 mph - N/A   Clear
8:55 PM 66.2 °F 51.8 °F 60% 29.93 in 10.0 mi SSE 12.7 mph - N/A   Clear
9:15 PM 66.2 °F 51.8 °F 60% 29.93 in 10.0 mi SSE 13.8 mph 18.4 mph N/A   Clear
9:35 PM 64.4 °F 51.8 °F 64% 29.94 in 10.0 mi SSE 11.5 mph - N/A   Clear
9:55 PM 64.4 °F 51.8 °F 64% 29.94 in 10.0 mi SSE 11.5 mph - N/A   Clear
10:15 PM 64.4 °F 51.8 °F 64% 29.95 in 10.0 mi SSE 11.5 mph - N/A   Clear
10:35 PM 62.6 °F 53.6 °F 72% 29.95 in 10.0 mi SSE 12.7 mph - N/A   Clear
10:55 PM 62.6 °F 53.6 °F 72% 29.96 in 10.0 mi SSE 11.5 mph - N/A   Clear
11:15 PM 62.6 °F 53.6 °F 72% 29.96 in 10.0 mi SSE 9.2 mph - N/A   Clear
11:55 PM 62.6 °F 53.6 °F 72% 29.96 in 10.0 mi South 11.5 mph - N/A   Clear